Flag for France Weather past 2 weeks in Saint-Denis, France

Now
64 °F

Clear.


Feels Like: 64 °F
Forecast: 50 / 70 °F
Wind: 6 mph from Northeast

Location: Paris Le Bourget Airport

Current Time: Apr 21, 2015 at 12:38:11 PM

Latest Report: Apr 21, 2015 at 12:00 PM


Visibility: N/A

Pressure: 30.42 "Hg

Humidity: 46%

Dew point: 43 °F

Location of Saint-DenisLocation

Historic Weather in Saint-Denis — Graph

°F

Saint-Denis temperature yesterday

Maximum temperature yesterday: 70 °F (at 3:30 PM)
Minimum temperature yesterday: 43 °F (at 5:30 AM)
Average temperature yesterday: 57 °F

Past Weeks' High & Low Weather Summary

 TemperatureHumidityPressure
High81 °F (Apr 15, 5:30 PM)100% (Apr 12, 3:30 AM)30.63 "Hg (Apr 12, 3:30 AM)
Low36 °F (Apr 7, 5:30 AM)24% (Apr 15, 6:30 PM)29.83 "Hg (Apr 16, 5:00 PM)
Average56 °F58%30.24 "Hg
* Reported Apr 6 11:00 AM — Apr 21 11:30 AM, Saint-Denis, Weather by CustomWeather, © 2015

Note: Actual official high and low records may vary slightly from our data, if they occured in-between our weather recording intervals... More about our weather records

Advertising

Saint-Denis weather history for previous 24 hours

 ConditionsComfort  
Time TempWeatherWind HumidityBarometerVisibility
11:30 AM
Tue, Apr 21
63 °FClear.8 mph49%30.42 "HgN/A
11:00 AM61 °FClear.8 mph55%30.42 "HgN/A
10:30 AM57 °FClear.7 mph59%30.42 "HgN/A
10:00 AM55 °FCool.7 mph63%30.42 "HgN/A
9:30 AM54 °FClear.6 mph67%30.39 "HgN/A
9:00 AM52 °FClear.7 mph67%30.42 "Hg6 mi
8:30 AM50 °FClear.5 mph71%30.39 "Hg6 mi
8:00 AM48 °FClear.3 mph76%30.39 "Hg4 mi
7:30 AM46 °FClear.2 mph82%30.39 "Hg5 mi
7:00 AM45 °FClear.3 mph81%30.39 "Hg5 mi
6:30 AM46 °FClear.3 mph76%30.36 "Hg6 mi
6:00 AM46 °FClear.6 mph82%30.36 "Hg6 mi
5:30 AM46 °FClear.3 mph76%30.36 "Hg6 mi
4:30 AM48 °FClear.5 mph76%30.36 "HgN/A
4:00 AM50 °FClear.6 mph67%30.36 "HgN/A
3:30 AM50 °FClear.8 mph71%30.36 "HgN/A
3:00 AM50 °FClear.8 mph67%30.36 "HgN/A
2:30 AM52 °FClear.8 mph58%30.36 "HgN/A
2:00 AM52 °FClear.10 mph58%30.33 "HgN/A
1:30 AM54 °FClear.9 mph54%30.33 "HgN/A
1:00 AM54 °FClear.7 mph54%30.33 "HgN/A
12:30 AM54 °FClear.8 mph54%30.33 "HgN/A
12:00 AM54 °FClear.5 mph51%30.33 "HgN/A
11:30 PM
Mon, Apr 20
55 °FClear.5 mph47%30.33 "HgN/A
11:00 PM55 °FClear.6 mph47%30.33 "HgN/A
10:30 PM57 °FClear.7 mph48%30.33 "HgN/A
10:00 PM59 °FClear.6 mph42%30.33 "HgN/A
9:30 PM61 °FClear.5 mph39%30.30 "HgN/A
9:00 PM61 °FClear.5 mph36%30.30 "HgN/A
8:30 PM63 °FClear.6 mph34%30.30 "HgN/A
8:00 PM64 °FClear.9 mph34%30.27 "HgN/A
7:30 PM66 °FClear.12 mph32%30.27 "HgN/A
7:00 PM68 °FClear.13 mph33%30.27 "HgN/A
6:30 PM70 °FClear.13 mph25%30.27 "HgN/A
6:00 PM70 °FClear.12 mph27%30.27 "HgN/A
5:30 PM70 °FClear.12 mph27%30.27 "HgN/A
5:00 PM70 °FClear.12 mph27%30.27 "HgN/A
4:30 PM70 °FClear.10 mph27%30.27 "HgN/A
4:00 PM70 °FClear.12 mph27%30.27 "HgN/A
3:30 PM70 °FClear.12 mph27%30.27 "HgN/A
3:00 PM68 °FClear.13 mph28%30.27 "HgN/A
2:30 PM68 °FClear.15 mph28%30.27 "HgN/A
2:00 PM68 °FClear.16 mph28%30.27 "HgN/A
1:30 PM68 °FClear.16 mph30%30.27 "HgN/A
1:00 PM66 °FClear.14 mph32%30.27 "HgN/A
12:30 PM64 °FClear.12 mph37%30.27 "HgN/A
12:00 PM64 °FClear.10 mph37%30.27 "HgN/A
Weather by CustomWeather, © 2015

See weather overviewHow to use our weather pages